Flag for Belgium Weather past 2 weeks in Leuven, Belgium

Now
55 °F

Clear.


Feels Like: 55 °F
Forecast: 52 / 75 °F
Wind: 3 mph from Northeast

Location: Brussels National Airport

Current Time: Jul 31, 2015 at 11:36:04 PM

Latest Report: Jul 31, 2015 at 10:50 PM


Visibility: 10 mi

Pressure: 30.04 "Hg

Humidity: 72%

Dew point: 46 °F

Location of LeuvenLocation

Historic Weather in Leuven — Graph

°F

Leuven temperature yesterday

Maximum temperature yesterday: 64 °F (at 3:20 PM)
Minimum temperature yesterday: 52 °F (at 6:50 AM)
Average temperature yesterday: 56 °F

Past Weeks' High & Low Weather Summary

 TemperatureHumidityPressure
High82 °F (Jul 17, 3:20 PM)100% (Jul 25, 1:20 PM)30.15 "Hg (Jul 25, 1:20 PM)
Low43 °F (Jul 31, 4:50 AM)36% (Jul 18, 4:50 PM)29.50 "Hg (Jul 25, 3:50 AM)
Average64 °F70%29.90 "Hg
* Reported Jul 16 10:20 PM — Jul 31 10:20 PM, Leuven, Weather by CustomWeather, © 2015

Note: Actual official high and low records may vary slightly from our data, if they occured in-between our weather recording intervals... More about our weather records

Advertising

Leuven weather history for previous 24 hours

 ConditionsComfort  
Time TempWeatherWind HumidityBarometerVisibility
10:20 PM
Fri, Jul 31
57 °FSunny.3 mph67%30.04 "Hg10 mi
9:50 PM57 °FSunny.5 mph67%30.01 "Hg10 mi
9:20 PM59 °FSunny.3 mph63%30.01 "Hg10 mi
8:50 PM63 °FSunny.5 mph52%30.01 "Hg10 mi
8:20 PM64 °FSunny.6 mph46%30.01 "Hg10 mi
7:50 PM66 °FPassing clouds.6 mph43%30.04 "HgN/A
7:20 PM68 °FPassing clouds.5 mph40%30.04 "HgN/A
6:50 PM68 °FPassing clouds.8 mph43%30.04 "HgN/A
6:20 PM68 °FPassing clouds.6 mph40%30.04 "HgN/A
5:50 PM68 °FPassing clouds.5 mph40%30.07 "HgN/A
5:20 PM68 °FSunny.3 mph40%30.07 "Hg10 mi
4:50 PM68 °FSunny.3 mph40%30.07 "Hg10 mi
4:20 PM70 °FPassing clouds.8 mph40%30.09 "HgN/A
3:50 PM68 °FScattered clouds.5 mph46%30.09 "HgN/A
3:20 PM68 °FScattered clouds.7 mph43%30.09 "HgN/A
2:50 PM66 °FScattered clouds.5 mph43%30.09 "HgN/A
2:20 PM66 °FScattered clouds.6 mph46%30.09 "HgN/A
1:50 PM64 °FScattered clouds.5 mph43%30.12 "HgN/A
1:20 PM64 °FScattered clouds.3 mph46%30.12 "HgN/A
12:50 PM63 °FScattered clouds.5 mph49%30.12 "HgN/A
12:20 PM64 °FScattered clouds.5 mph46%30.15 "HgN/A
11:50 AM61 °FPassing clouds.3 mph52%30.15 "HgN/A
11:20 AM63 °FPassing clouds.5 mph59%30.15 "HgN/A
10:50 AM61 °FPassing clouds.5 mph59%30.15 "HgN/A
10:20 AM59 °FPassing clouds.6 mph63%30.15 "HgN/A
9:20 AM59 °FPassing clouds.3 mph68%30.15 "HgN/A
8:50 AM57 °FPassing clouds.3 mph72%30.15 "HgN/A
8:20 AM55 °FPassing clouds.3 mph77%30.15 "HgN/A
7:50 AM52 °FClear.1 mph82%30.15 "HgN/A
7:20 AM48 °FFog.2 mph94%30.15 "HgN/A
6:50 AM45 °FFog.1 mph93%30.15 "Hg5 mi
6:20 AM45 °FFog.No wind93%30.12 "Hg4 mi
5:50 AM45 °FFog.No wind93%30.12 "Hg5 mi
5:20 AM45 °FClear.1 mph100%30.12 "Hg5 mi
4:50 AM43 °FClear.1 mph100%30.12 "Hg10 mi
4:20 AM46 °FClear.No wind93%30.12 "Hg10 mi
3:50 AM45 °FClear.1 mph93%30.12 "Hg10 mi
3:20 AM46 °FClear.1 mph93%30.12 "Hg10 mi
2:50 AM46 °FClear.1 mph93%30.12 "Hg10 mi
2:20 AM46 °FClear.2 mph93%30.12 "Hg10 mi
1:50 AM46 °FClear.2 mph93%30.12 "Hg10 mi
1:20 AM48 °FClear.1 mph94%30.12 "Hg10 mi
12:50 AM52 °FClear.2 mph88%30.12 "Hg10 mi
12:20 AM52 °FPassing clouds.2 mph88%30.12 "HgN/A
11:50 PM
Thu, Jul 30
52 °FPassing clouds.1 mph88%30.12 "HgN/A
11:20 PM52 °FPassing clouds.1 mph88%30.12 "HgN/A
Weather by CustomWeather, © 2015

See weather overviewHow to use our weather pages